Tracking 28790 objects as of 19-Apr-2024
HD Live streaming from Space Station
objects crossing your sky now

SL-12 R/B(2)

Track SL-12 R/B(2) now!


NORAD ID: 25660
Int'l Code: 1999-013D
Perigee: 9,324.6 km
Apogee: 36,126.0 km
Inclination: 12.1 °
Period: 823.2 minutes
Semi major axis: 29096 km
RCS: 28.3579 m2 (large)
Launch date: March 21, 1999
Source: Commonwealth of Independent States (former USSR) (CIS)
Launch site: TYURATAM MISSILE AND SPACE COMPLEX (TTMTR)

Note: This is a ROCKET BODY
Your satellite tracking list
Your tracking list is empty




NASA's NSSDC Master Catalog

Two Line Element Set (TLE):
1 25660U 99013D   24109.61632701 -.00000042  00000-0  00000-0 0  9990
2 25660  12.1264 167.8917 4605637 325.1867 214.5812  1.74922953160281
Source of the keplerian elements: AFSPC